Time,TemperatureF,DewpointF,PressureIn,WindDirection,WindDirectionDegrees,WindSpeedMPH,WindSpeedGustMPH,Humidity,HourlyPrecipIn,Conditions,Clouds,dailyrainin,SolarRadiationWatts/m^2,SoftwareType,DateUTC
2015-01-31 00:01:00,30.0,-5.0,30.82,WSW,247,0.0,-999.0,0,0.00,,,0.00,5.46,,2015-01-31 00:01:00,
2015-01-31 00:06:00,30.0,-5.0,30.82,WSW,247,0.0,-999.0,0,0.00,,,0.00,5.46,,2015-01-31 00:06:00,
2015-01-31 00:11:00,30.0,-5.0,30.84,WSW,247,0.0,-999.0,0,0.00,,,0.00,5.46,,2015-01-31 00:11:00,
2015-01-31 00:16:00,30.0,-5.0,30.84,SW,225,0.0,-999.0,0,0.00,,,0.00,5.46,,2015-01-31 00:16:00,
2015-01-31 00:21:00,30.0,-5.0,30.90,SW,225,0.0,-999.0,0,0.00,,,0.00,5.46,,2015-01-31 00:21:00,
2015-01-31 00:26:00,30.0,-5.0,30.90,SW,225,1.0,-999.0,0,0.00,,,0.00,5.46,,2015-01-31 00:26:00,
2015-01-31 00:31:00,30.0,-5.0,31.01,SW,225,0.0,-999.0,0,0.00,,,0.00,5.46,,2015-01-31 00:31:00,
2015-01-31 00:36:00,30.0,-5.0,31.01,SW,225,0.0,-999.0,0,0.00,,,0.00,5.46,,2015-01-31 00:36:00,
2015-01-31 00:41:00,30.0,-5.0,31.24,SW,225,0.0,-999.0,0,0.00,,,0.00,5.46,,2015-01-31 00:41:00,
2015-01-31 00:46:00,31.0,-4.0,31.24,SW,225,4.0,-999.0,0,0.00,,,0.00,5.46,,2015-01-31 00:46:00,
2015-01-31 00:51:00,31.0,-4.0,31.39,WSW,247,1.0,3.0,0,0.00,,,0.00,5.46,,2015-01-31 00:51:00,
2015-01-31 00:56:00,31.0,-4.0,31.39,WSW,247,2.0,2.0,0,0.00,,,0.00,5.46,,2015-01-31 00:56:00,
2015-01-31 01:01:00,31.0,-4.0,34.95,WSW,247,0.0,-999.0,0,0.00,,,0.00,5.46,,2015-01-31 01:01:00,
2015-01-31 01:06:00,31.0,-4.0,34.95,WSW,247,0.0,-999.0,0,0.00,,,0.00,5.46,,2015-01-31 01:06:00,
2015-01-31 01:11:00,30.0,-5.0,35.14,SW,225,0.0,-999.0,0,0.00,,,0.00,5.46,,2015-01-31 01:11:00,
2015-01-31 01:16:00,31.0,-4.0,35.14,SW,225,0.0,-999.0,0,0.00,,,0.00,5.46,,2015-01-31 01:16:00,
2015-01-31 01:21:00,31.0,-4.0,35.14,SSW,202,0.0,-999.0,0,0.00,,,0.00,5.46,,2015-01-31 01:21:00,
2015-01-31 01:26:00,30.0,-5.0,35.14,South,180,0.0,-999.0,0,0.00,,,0.00,5.46,,2015-01-31 01:26:00,
2015-01-31 01:31:00,31.0,-4.0,35.14,SSE,157,3.0,-999.0,0,0.00,,,0.00,5.46,,2015-01-31 01:31:00,
2015-01-31 01:36:00,31.0,-4.0,35.14,SSE,157,0.0,-999.0,0,0.00,,,0.00,5.49,,2015-01-31 01:36:00,
2015-01-31 01:41:00,31.0,-4.0,35.14,SSE,157,2.0,-999.0,0,0.00,,,0.00,5.46,,2015-01-31 01:41:00,
2015-01-31 01:46:00,31.0,-4.0,35.14,SW,225,1.0,-999.0,0,0.00,,,0.00,5.46,,2015-01-31 01:46:00,
2015-01-31 01:51:00,31.0,-4.0,35.14,SW,225,0.0,-999.0,0,0.00,,,0.00,5.46,,2015-01-31 01:51:00,
2015-01-31 01:56:00,31.0,-4.0,35.14,WSW,247,1.0,-999.0,0,0.00,,,0.00,5.49,,2015-01-31 01:56:00,
2015-01-31 02:01:00,31.0,-4.0,35.14,WNW,292,1.0,1.0,0,0.00,,,0.00,5.46,,2015-01-31 02:01:00,
2015-01-31 02:06:00,31.0,-4.0,35.14,WNW,292,0.0,-999.0,0,0.00,,,0.00,5.46,,2015-01-31 02:06:00,
2015-01-31 02:11:00,31.0,-4.0,35.14,WNW,292,0.0,-999.0,0,0.00,,,0.00,5.46,,2015-01-31 02:11:00,
2015-01-31 02:16:00,31.0,-4.0,35.14,WNW,292,0.0,-999.0,0,0.00,,,0.00,5.46,,2015-01-31 02:16:00,
2015-01-31 02:21:00,31.0,-4.0,35.14,SSW,202,0.0,-999.0,0,0.00,,,0.00,5.49,,2015-01-31 02:21:00,
2015-01-31 02:26:00,31.0,-4.0,35.14,SSW,202,0.0,-999.0,0,0.00,,,0.00,5.49,,2015-01-31 02:26:00,
2015-01-31 02:31:00,31.0,-4.0,35.14,SSW,202,0.0,-999.0,0,0.00,,,0.00,5.49,,2015-01-31 02:31:00,
2015-01-31 02:36:00,31.0,-4.0,35.14,SSW,202,0.0,-999.0,0,0.00,,,0.00,5.49,,2015-01-31 02:36:00,
2015-01-31 02:41:00,31.0,-4.0,35.14,SSW,202,0.0,-999.0,0,0.00,,,0.00,5.49,,2015-01-31 02:41:00,
2015-01-31 02:46:00,31.0,-4.0,35.14,SSW,202,0.0,-999.0,0,0.00,,,0.00,5.49,,2015-01-31 02:46:00,
2015-01-31 02:51:00,31.0,-4.0,35.14,SSW,202,0.0,-999.0,0,0.00,,,0.00,5.49,,2015-01-31 02:51:00,
2015-01-31 02:56:00,31.0,-4.0,35.14,SSW,202,0.0,-999.0,0,0.00,,,0.00,5.49,,2015-01-31 02:56:00,
2015-01-31 03:01:00,32.0,-3.0,35.14,SW,225,1.0,-999.0,0,0.00,,,0.00,5.49,,2015-01-31 03:01:00,
2015-01-31 03:06:00,32.0,-3.0,35.14,WSW,247,0.0,-999.0,0,0.00,,,0.00,5.49,,2015-01-31 03:06:00,
2015-01-31 03:11:00,32.0,-3.0,35.14,WSW,247,1.0,-999.0,0,0.00,,,0.00,5.49,,2015-01-31 03:11:00,
2015-01-31 03:16:00,32.0,-3.0,35.14,WSW,247,0.0,-999.0,0,0.00,,,0.00,5.49,,2015-01-31 03:16:00,
2015-01-31 03:21:00,32.0,-3.0,35.14,WSW,247,0.0,-999.0,0,0.00,,,0.00,5.49,,2015-01-31 03:21:00,
2015-01-31 03:26:00,31.0,-4.0,35.14,WSW,247,0.0,-999.0,0,0.00,,,0.00,5.49,,2015-01-31 03:26:00,
2015-01-31 03:31:00,31.0,-4.0,35.14,WSW,247,0.0,-999.0,0,0.00,,,0.00,5.49,,2015-01-31 03:31:00,
2015-01-31 03:36:00,31.0,-4.0,35.14,SW,225,0.0,-999.0,0,0.00,,,0.00,5.49,,2015-01-31 03:36:00,
2015-01-31 03:41:00,31.0,-4.0,35.14,SW,225,0.0,-999.0,0,0.00,,,0.00,5.49,,2015-01-31 03:41:00,
2015-01-31 03:47:00,31.0,-4.0,35.14,SW,225,0.0,-999.0,0,0.00,,,0.00,5.49,,2015-01-31 03:47:00,
2015-01-31 03:52:00,32.0,-3.0,35.14,West,270,0.0,-999.0,0,0.00,,,0.00,5.49,,2015-01-31 03:52:00,
2015-01-31 03:57:00,32.0,-3.0,35.14,West,270,0.0,-999.0,0,0.00,,,0.00,5.49,,2015-01-31 03:57:00,
2015-01-31 04:02:00,32.0,-3.0,35.14,WSW,247,0.0,-999.0,0,0.00,,,0.00,5.58,,2015-01-31 04:02:00,
2015-01-31 04:07:00,32.0,-3.0,35.14,West,270,0.0,-999.0,0,0.00,,,0.00,5.49,,2015-01-31 04:07:00,
2015-01-31 04:12:00,32.0,-3.0,35.14,SW,225,0.0,-999.0,0,0.00,,,0.00,5.49,,2015-01-31 04:12:00,
2015-01-31 04:16:00,32.0,-3.0,35.14,WSW,247,2.0,-999.0,0,0.00,,,0.00,5.49,,2015-01-31 04:16:00,
2015-01-31 04:21:00,33.0,-2.0,35.14,WSW,247,4.0,4.0,0,0.00,,,0.00,5.49,,2015-01-31 04:21:00,
2015-01-31 04:26:00,32.0,-3.0,35.14,West,270,0.0,-999.0,0,0.00,,,0.00,5.49,,2015-01-31 04:26:00,
2015-01-31 04:31:00,32.0,-3.0,35.14,SW,225,0.0,-999.0,0,0.00,,,0.00,5.49,,2015-01-31 04:31:00,
2015-01-31 04:36:00,32.0,-3.0,35.14,WSW,247,0.0,-999.0,0,0.00,,,0.00,5.49,,2015-01-31 04:36:00,
2015-01-31 04:41:00,32.0,-3.0,35.14,WSW,247,3.0,-999.0,0,0.00,,,0.00,5.49,,2015-01-31 04:41:00,